Location: *
(40.7140°S, 106.4410°E)
Time: 21:24:27
(UTC+00:00)

Daily predictions for brighter satellites

Satellite Brightness Start Highest point End
(mag) Time Altitude Azimuth Time Altitude Azimuth Time Altitude Azimuth
Cosmos 2123 Rocket 4.2 12:00:52 10° NNW 12:07:11 74° W 12:13:37 10° S
COSMOS 2487 4.2 12:08:26 10° NW 12:11:05 32° W 12:11:05 32° W
Atlas Centaur 2 3.8 12:09:44 10° WNW 12:16:14 38° N 12:18:27 32° NNE
Cosmos 2251 Rocket 4.1 12:12:06 10° SSW 12:17:24 56° WNW 12:22:36 10° N
CSL-04 Rocket 3.8 12:23:02 67° NNW 12:23:02 67° NNW 12:27:44 10° NNW
CZ-4 R/B 3.6 12:35:51 22° NW 12:35:51 22° NW 12:37:32 10° NW
Cosmos 2360 Rocket 3.2 12:36:29 10° SSW 12:40:08 41° SW 12:40:08 41° SW
Cosmos 2233 Rocket 4.5 12:47:07 10° SSW 12:58:54 12° NNW 12:59:16 10° NNW
ATLAS CENTAUR R/B 4.3 12:55:37 10° SW 13:02:03 69° NW 13:20:37 10° NNE
Cosmos 2322 Rocket 4.5 13:06:33 10° SW 13:10:36 20° W 13:14:38 10° NW
ADEOS Rocket 4.4 13:13:15 34° SW 13:13:15 34° SW 13:17:13 10° SSW
CZ-4C R/B 3.8 13:24:26 10° NW 13:30:24 43° W 13:30:24 43° W
CZ-4C R/B 4.2 20:59:21 17° NE 20:59:21 17° NE 21:00:27 10° NE
Cosmos 1943 Rocket 4.0 21:16:54 21° SSE 21:16:54 21° SSE 21:18:41 10° SSE
ALOS 4.0 21:09:23 10° NE 21:12:25 31° ENE 21:12:25 31° ENE
ATLAS 5 CENTAUR R/B 3.7 21:10:45 19° N 21:15:23 42° ENE 21:21:35 10° SE
Lacrosse 5 rocket 4.3 21:17:03 11° NE 21:17:20 11° ENE 21:18:26 10° ENE
FENGYUN 3A 4.4 21:18:04 10° NE 21:23:16 49° ESE 21:24:36 40° SSE
Cosmos 2369 Rocket 3.8 21:32:30 23° S 21:32:30 23° S 21:34:39 10° SSE
Lacrosse 5 3.9 21:44:16 10° N 21:48:30 27° ENE 21:52:46 10° ESE
Cosmos 1959 Rocket 4.3 21:48:57 68° WSW 21:48:57 68° WSW 21:54:46 10° S
Cosmos 1727 Rocket 4.0 21:42:47 10° S 21:49:04 77° E 21:55:16 10° N
Okean-O 4.2 21:47:25 10° NE 21:51:26 34° ESE 21:55:24 10° S
Cosmos 1726 Rocket 3.8 21:52:20 70° ENE 21:52:20 70° ENE 21:56:28 10° NNE
Cosmos 923 Rocket 4.2 21:47:43 10° N 21:53:01 70° ENE 21:58:21 10° SSE
IRS-1C Rocket 4.1 21:48:13 10° NNE 21:53:30 82° ESE 21:55:37 38° S
Cosmos 2366 rocket 3.9 21:50:17 10° NNW 21:56:28 64° W 22:02:49 10° S
Cosmos 1339 Rocket 4.4 21:58:05 53° SW 21:59:16 63° W 22:05:22 10° N
Cosmos 2218 Rocket 4.1 21:58:17 10° NNW 22:04:28 52° WSW 22:10:48 10° S
BREEZE-M DEB (TANK) 3.9 22:05:01 37° NW 22:07:35 86° NE 22:25:46 10° ESE
METEOR-M 4.2 22:04:52 10° N 22:10:08 56° W 22:10:43 53° WSW
Cosmos 1833 4.1 22:12:18 40° SW 22:14:23 71° WNW 22:20:04 10° NNE
BREEZE-M TANK 3.7 22:13:53 43° W 22:15:28 62° NNW 22:30:34 10° NE
H-2A R/B 4.0 22:14:54 10° NE 22:18:23 39° ESE 22:21:54 10° S
In-Cosmos 22 4.1 22:14:14 10° N 22:19:37 81° E 22:25:01 10° SSE
Cosmos 1680 Rocket 3.4 22:14:28 10° NNW 22:19:43 89° WSW 22:25:01 10° SSE
NOSS 3-2 (A) 4.0 22:15:36 10° NNW 22:24:04 90° WSW 22:31:46 10° SE
Cosmos 1821 Rocket 4.0 22:21:36 10° N 22:28:00 86° E 22:34:26 10° S
Cosmos 1184 Rocket 3.6 22:29:40 37° NNW 22:29:40 37° NNW 22:31:57 10° N
Cosmos 1892 Rocket 3.8 22:25:34 10° NNW 22:29:51 44° WSW 22:34:13 10° S
Cosmos 1602 Rocket 4.2 22:33:14 10° N 22:37:41 60° E 22:42:10 10° SSE
ATLAS 3B R/B 3.2 22:31:45 10° NNW 22:38:50 67° ENE 22:46:10 10° SE
CENTAUR R/B 3.7 22:31:25 10° NNW 22:39:25 57° ENE 22:46:28 10° SE
Shenzhou-11 Module 3.7 22:40:50 19° NNW 22:40:50 19° NNW 22:42:40 10° NNE
Cosmos 2227 Rocket 4.3 22:36:18 10° S 22:40:46 23° SE 22:45:10 10° ENE
KORONAS-FOTON 4.3 22:37:31 10° N 22:41:26 65° E 22:45:24 10° SSE
CZ-4C R/B 3.7 22:44:35 14° NW 22:44:35 14° NW 22:46:07 10° NW
Cosmos 1656 Rocket 4.1 22:40:43 22° WNW 22:43:38 37° WSW 22:48:45 10° S
Cosmos 1953 4.1 22:45:40 18° NW 22:45:40 18° NW 22:47:07 10° NW
Cosmos 1726 2.0 22:41:28 10° S 22:45:17 87° WNW 22:49:01 10° N
Cosmos 1626 Rocket 3.5 22:41:11 10° N 22:45:40 89° WSW 22:50:11 10° S
USA 238 DEB 3.9 22:39:17 10° NW 22:46:35 57° SW 22:53:45 10° SSE
USA 238 3.9 22:39:23 10° NW 22:46:40 58° SW 22:53:50 10° SSE
Cosmos 1624 Rocket 4.4 22:41:45 10° SSW 22:47:05 66° ESE 22:52:24 10° NNE
Meteor 2-5 Rocket 3.6 22:42:39 10° NNW 22:48:13 80° W 22:53:55 10° S
YAOGAN 1 4.1 22:45:08 10° NE 22:49:08 37° ESE 22:53:12 10° S
Envisat 4.0 22:44:29 10° NE 22:49:23 48° ESE 22:54:21 10° S
SMAP 3.2 22:45:16 10° N 22:49:50 51° W 22:54:27 10° SSW
Tiangong 2 2.1 22:48:12 18° NW 22:50:14 45° NNE 22:53:21 10° E
Cosmos 2058 Rocket 3.6 22:48:31 20° SW 22:51:00 37° W 22:55:03 10° NNW
ALOS 3.5 22:47:30 10° NW 22:50:57 23° W 22:50:57 23° W
Cosmos 2219 4.2 22:47:01 10° SSW 22:52:28 45° ESE 22:57:51 10° NE
Lacrosse 5 rocket 0.9 22:52:49 14° NW 22:55:58 72° SW 22:59:40 10° SE
Cosmos 1371 Rocket 4.0 22:51:11 10° SSW 22:56:35 88° W 23:01:52 10° NNE
Cosmos 1943 Rocket 4.0 22:58:28 13° SW 22:58:28 13° SW 23:00:22 10° SSW
ATLAS 5 CENTAUR R/B 2.9 22:53:34 10° WNW 23:00:13 44° SW 23:06:23 10° SSE
NOAA 12 4.1 22:55:04 10° NNE 23:00:20 84° WNW 23:05:41 10° SSW
Timation 2 Rocket 4.5 22:55:59 15° SW 23:00:50 41° WNW 23:06:55 10° N
Cosmos 2228 4.5 23:01:54 19° W 23:01:54 19° W 23:04:42 10° NW
Cosmos 2297 Rocket 3.7 22:58:37 10° S 23:03:47 34° ESE 23:08:53 10° ENE
Cosmos 2123 Rocket 4.0 22:57:28 10° S 23:03:54 89° W 23:10:11 10° N
ATLAS CENTAUR Rocket 4.0 23:03:30 10° NW 23:06:22 19° N 23:10:03 10° NE
SKYMED 2 3.6 23:03:22 10° SSE 23:07:49 89° WSW 23:12:12 10° NNW
Cosmos 2112 Rocket 4.5 23:05:46 10° NW 23:10:36 37° WSW 23:15:29 10° S
Cosmos 2369 Rocket 4.1 23:14:19 10° SW 23:14:19 10° SW 23:15:18 10° SSW
Cosmos 1674 3.2 23:11:47 10° NNW 23:15:25 38° WSW 23:19:06 10° S
CZ-3B R/B 1.5 23:16:39 25° SW 23:17:26 89° E 23:20:18 10° NE
CZ-4 R/B 1.2 23:16:12 10° N 23:20:04 71° WNW 23:24:01 10° SSW
NOSS 3-3 (A) 4.0 23:16:22 10° SW 23:22:41 62° WNW 23:28:26 10° NNE
NOSS 3-3 (C) 4.0 23:16:28 10° SW 23:22:48 63° WNW 23:28:33 10° NNE
Meteor 1-24 Rocket 3.8 23:20:48 10° NNW 23:26:00 52° WSW 23:31:21 10° S
SL-14 R/B 3.4 23:22:41 10° N 23:26:44 89° WSW 23:30:52 10° S
Okean-O 3.9 23:24:28 10° NW 23:27:57 22° W 23:31:28 10° SW
Cosmos 1812 Rocket 3.7 23:23:48 10° SSW 23:28:08 52° W 23:32:27 10° N
Cosmos 1908 4.0 23:24:47 10° SSW 23:28:24 33° W 23:31:57 10° NNW
Ariane Rocket 3.7 23:25:51 10° NNE 23:30:50 59° ESE 23:35:54 10° S
Lacrosse 5 2.1 23:26:11 10° WNW 23:31:12 53° SW 23:36:16 10° SE
NOSS 3-2 (C) 4.2 23:26:07 10° NW 23:34:16 54° SW 23:41:40 10° SSE
Cosmos 1420 Rocket 4.2 23:33:46 10° SSW 23:39:07 79° ESE 23:44:21 10° NNE
SL-8 R/B 3.9 23:37:13 10° WNW 23:42:01 56° SSW 23:46:51 10° SE
Meteor 2-1 Rocket 4.3 23:37:46 10° S 23:43:24 87° W 23:49:02 10° N
CSL-04 Rocket 3.9 23:40:09 10° N 23:45:32 55° W 23:51:03 10° SSW
